CZ-4C DEB, 42671

Orbit data source: Space-Track

CZ-4C DEB, 42671 is space debris in SSO originally from a launch on Thu, 26 Nov 2015 UTC launched from the Taiyaun Space Center, China (TSC). Debris objects in space refer to the collection of defunct objects orbiting the Earth. Examples of debris include non-operational satellites, rocket bodies, and fragments generated from explosions, collisions, or faulty payload assembly.

Loading next visibility...
CZ-4C DEB details
Identifier
42671, 2015-069D
Orbit
SSO
Last TLE update1 day ago
Origin
Flag of CNCNSA (CN / PRC)
ManufacturerUnknown
MissionSpacecraft
Bus & MotorUnknown
MassUnknown
Launch date (UTC)
2015-11-26 (9 years ago)
Launch vehicleUnknown
Launch site
Taiyaun Space Center, China (TSC)
Object type
Payload
Rocket body
Debris
Shape & HBRUnknown
Radar Cross SectionSmall (<0.1 m²)

Expand to show TLE details & history

TLE from 1 day ago
0 CZ-4C DEB
1 42671U 15069D   24347.37948001  .00010630  00000-0  15948-2 0  9992
2 42671  97.8533 216.9592 0129455 350.1739   9.6938 14.69171821475219
Epoch: 2024-12-12T09:06Z
Definitive object data (Epoch: 2024-12-12T09:06:27.072Z)
Latitude-0.00004°
Longitude-1.21425°
Altitude576.879 km
Speed7.62 km/s
True Right ascension14h 27m 50s
True Declination0° 00' 00"
Sunlit
Object was in daylight at TLE epoch
Visualization TLE readout
Latitude-46.05408°
Longitude7.94201°
Altitude604.909 km
Speed7.597 km/s
Apparent Right ascension17h 30m 28s
Apparent Declination-49° 06' 37"
Sunlit
Object is in daylight
Visualization observer readout
Local Sidereal Time07:54:56
Azimuth121.936° SE
Elevation-62.957°
Doppler factor1
Orbital elements
Apogee altitude751.888 km
Perigee altitude569.644 km
Semi-major axis7,038.903 km
Eccentricity0.0129455
Inclination97.8533°
RAAN216.9592°
Arg. of periapsis350.1739°
True anomaly9.94763°
Mean anomaly9.6938°
Eccentric anomaly9.82031°
Mean motion3.67524 °/min
BSTAR0.0015948
Orbital period97.95 mins
Loading maneuver chart data...
Loading historical data...
Loading historical data...
Loading historical data...
Loading historical data...
Loading historical data...
Loading historical data...
Loading historical data...

CZ-4C DEB Visibility forecast

Observer location: undefined°, undefined

Span
Click to sort rows by Start time (UTC) header in descending order
Start Az.
Max El. time (UTC)
Max El. Az.
Max El.
End time (UTC)
End Az.
6 mins2024-12-13 14:40:10.422Z118.894° SE2024-12-13 14:43:10.422Z70.54° E21.78°2024-12-13 14:46:10.422Z19.837° NNE
5 mins2024-12-13 16:18:10.422Z222.195° SW2024-12-13 16:20:10.422Z264.379° W24.583°2024-12-13 16:23:10.422Z317.815° NNW
8 mins2024-12-14 04:11:10.422Z23.087° NE2024-12-14 04:14:10.422Z84.299° E42.206°2024-12-14 04:19:10.422Z183.28° SSW
4 mins2024-12-14 05:49:10.422Z318.559° NNW2024-12-14 05:51:10.422Z291.737° WNW14.443°2024-12-14 05:53:10.422Z266.882° W
|